Flag for Bahamas Weather past 2 weeks in Nassau, Bahamas

Now
73 °F

Rain showers. Passing clouds.


Feels Like: 73 °F
Forecast: 71 / 80 °F
Wind: 9 mph from West

Location: Nassau Airport

Current Time: Mar 28, 2015 at 7:47:33 AM

Latest Report: Mar 28, 2015 at 6:00 AM


Visibility: N/A

Pressure: 29.97 "Hg

Humidity: 83%

Dew point: 68 °F

Location of NassauLocation

Historic Weather in Nassau — Graph

°F

Nassau temperature yesterday

Maximum temperature yesterday: 86 °F (at 5:00 PM)
Minimum temperature yesterday: 77 °F (at 12:00 AM)
Average temperature yesterday: 80 °F

Past Weeks' High & Low Weather Summary

 TemperatureHumidityPressure
High86 °F (Mar 21, 2:00 PM)100% (Mar 16, 5:00 AM)30.20 "Hg (Mar 16, 5:00 AM)
Low68 °F (Mar 15, 8:00 AM)45% (Mar 20, 3:00 PM)29.90 "Hg (Mar 27, 5:00 PM)
Average77 °F76%30.06 "Hg
* Reported Mar 13 6:00 AM — Mar 28 6:00 AM, Nassau, Weather by CustomWeather, © 2015

Note: Actual official high and low records may vary slightly from our data, if they occured in-between our weather recording intervals... More about our weather records

Advertising

Nassau weather history for previous 24 hours

 ConditionsComfort  
Time TempWeatherWind HumidityBarometerVisibility
6:00 AM
Sat, Mar 28
73 °FRain showers. Passing clouds.9 mph83%29.97 "HgN/A
5:00 AM72 °FPassing clouds.13 mph100%29.96 "HgN/A
3:00 AM72 °FPassing clouds.12 mph83%29.98 "HgN/A
2:00 AM72 °FRain showers. Passing clouds.12 mph83%30.01 "Hg1 mi
1:00 AM72 °FStrong thunderstorms. Passing clouds.12 mph88%30.02 "Hg1 mi
12:00 AM73 °FLots of rain. Partly cloudy.17 mph89%30.00 "Hg1 mi
11:00 PM
Fri, Mar 27
81 °FPartly cloudy.1 mph84%29.96 "HgN/A
10:00 PM79 °FPartly cloudy.3 mph79%29.95 "HgN/A
9:00 PM79 °FPartly cloudy.5 mph79%29.95 "HgN/A
8:00 PM81 °FBroken clouds.5 mph84%29.91 "HgN/A
7:00 PM81 °FPartly sunny.14 mph79%29.91 "HgN/A
6:00 PM82 °FPartly sunny.18 mph74%29.90 "HgN/A
5:00 PM86 °FPartly sunny.21 mph70%29.90 "HgN/A
4:00 PM82 °FPartly sunny.20 mph74%29.92 "HgN/A
3:00 PM82 °FScattered clouds.18 mph70%29.93 "HgN/A
1:00 PM82 °FPassing clouds.15 mph70%29.99 "HgN/A
12:00 PM82 °FScattered clouds.13 mph70%30.01 "HgN/A
11:00 AM84 °FScattered clouds.13 mph70%30.05 "HgN/A
9:00 AMN/ABroken clouds.6 mphN/A30.02 "HgN/A
8:00 AM79 °FPassing clouds.6 mph84%30.00 "HgN/A
7:00 AM77 °FPartly cloudy.7 mph83%29.98 "HgN/A
Weather by CustomWeather, © 2015

See weather overviewHow to use our weather pages